2019-087A (44838 NORAD) Tracking and Keplerian Element Data

This shows tracking and keplerian element data for the satellite.

Feedback or suggestion? Click here.




ElementValue
Catalog44838
Name2019-087A
Epoch Orbit630
Epoch Day17.81479969
Epoch Year2020
RAAN176.4985
Inclination97.3765
Eccentricity0.0014586
Argument of Perigee116.1128
Mean Anonmoly349.6871
Mean Motion15.20947173
Decay Rate7.67E-06
L11 44838U 19087A 20017.81479969 .00000767 00000-0 37676-4 0 9998
L22 44838 97.3765 176.4985 0014586 116.1128 349.6871 15.20947173 6306

Live tracking and technical data element details for 2019-087A (NORAD 44838). 2019-087A can be tracked NOW for your location showing map with azimuth and elevation plus other details from your city location.

Track the satellite on the map from your city or location and see movement details for azimuth, elevation, latitude, longitude, range, height, and movement on the map or in text.







IsCatalogInMostPopularTable: catalog: 44838, numindb: 6
Update: records affected: 1



GetName: 44838 2019-087A

Hit Count: updated at: Sat, 18 Jan 2020 17:20:44 GMT